• In Hungary
  • List of Countries
  • For 7 days
  • Water Temperature
  • Satellite Maps
  • Weather Map
  • News
  • Weather Widgets
  • user-avatar
    Login

    Hourly Weather Pilzno

    Today, 15 October, Monday

    Time Temperature Precipitation Wind Pressure Humidity
    00:00 +11°C° 0 mm 3 mps 747 mmHg 64%
    01:00 +12°C° 0 mm 2 mps 747 mmHg 64%
    02:00 +10°C° 0 mm 2 mps 747 mmHg 64%
    03:00 +10°C° 0 mm 2 mps 747 mmHg 63%
    04:00 +10°C° 0 mm 2 mps 747 mmHg 63%
    05:00 +10°C° 0 mm 2 mps 747 mmHg 62%
    06:00 +10°C° 0 mm 2 mps 747 mmHg 61%
    07:00 +10°C° 0 mm 2 mps 747 mmHg 61%
    08:00 +13°C° 0 mm 3 mps 747 mmHg 53%
    09:00 +16°C° 0 mm 3 mps 747 mmHg 45%
    10:00 +19°C° 0 mm 3 mps 747 mmHg 37%
    11:00 +20°C° 0 mm 3 mps 747 mmHg 35%
    12:00 +21°C° 0 mm 4 mps 747 mmHg 33%
    13:00 +22°C° 0 mm 4 mps 746 mmHg 30%
    14:00 +21°C° 0 mm 3 mps 746 mmHg 34%
    15:00 +19°C° 0 mm 3 mps 746 mmHg 39%
    16:00 +18°C° 0 mm 3 mps 746 mmHg 43%
    17:00 +17°C° 0 mm 3 mps 746 mmHg 47%
    18:00 +14°C° 0 mm 3 mps 746 mmHg 51%
    19:00 +12°C° 0 mm 3 mps 746 mmHg 54%
    20:00 +13°C° 0 mm 2 mps 746 mmHg 55%
    21:00 +12°C° 0 mm 2 mps 746 mmHg 55%
    22:00 +12°C° 0 mm 2 mps 746 mmHg 56%
    23:00 +12°C° 0 mm 2 mps 746 mmHg 55%

    Tomorrow, 16 October, Tuesday

    Time Temperature Precipitation Wind Pressure Humidity
    00:00 +10°C° 0 mm 2 mps 746 mmHg 55%
    01:00 +10°C° 0 mm 2 mps 746 mmHg 54%
    02:00 +10°C° 0 mm 2 mps 745 mmHg 53%
    03:00 +10°C° 0 mm 2 mps 745 mmHg 53%
    04:00 +10°C° 0 mm 2 mps 745 mmHg 52%
    05:00 +11°C° 0 mm 1 mps 745 mmHg 52%
    06:00 +11°C° 0 mm 1 mps 746 mmHg 52%
    07:00 +11°C° 0 mm 1 mps 746 mmHg 53%
    08:00 +14°C° 0 mm 1 mps 746 mmHg 47%
    09:00 +16°C° 0 mm 2 mps 746 mmHg 42%
    10:00 +18°C° 0 mm 2 mps 746 mmHg 37%
    11:00 +19°C° 0 mm 2 mps 746 mmHg 35%
    12:00 +21°C° 0 mm 2 mps 746 mmHg 33%
    13:00 +23°C° 0 mm 2 mps 746 mmHg 31%
    14:00 +21°C° 0 mm 2 mps 746 mmHg 35%
    15:00 +20°C° 0 mm 2 mps 746 mmHg 39%
    16:00 +18°C° 0 mm 2 mps 745 mmHg 44%
    17:00 +17°C° 0 mm 2 mps 746 mmHg 46%
    18:00 +15°C° 0 mm 2 mps 746 mmHg 49%
    19:00 +14°C° 0 mm 2 mps 746 mmHg 51%
    20:00 +14°C° 0 mm 2 mps 746 mmHg 52%
    21:00 +13°C° 0 mm 2 mps 746 mmHg 53%
    22:00 +13°C° 0 mm 2 mps 746 mmHg 54%
    23:00 +12°C° 0 mm 1 mps 746 mmHg 54%

    Day after tomorrow, 17 October, Wednesday

    Time Temperature Precipitation Wind Pressure Humidity
    00:00 +12°C° 0 mm 1 mps 746 mmHg 55%
    01:00 +12°C° 0 mm 1 mps 746 mmHg 55%
    02:00 +11°C° 0 mm 1 mps 746 mmHg 56%
    03:00 +11°C° 0 mm 1 mps 746 mmHg 57%
    04:00 +11°C° 0 mm 1 mps 745 mmHg 58%
    05:00 +11°C° 0 mm 1 mps 746 mmHg 58%
    06:00 +11°C° 0 mm 1 mps 746 mmHg 59%
    07:00 +11°C° 0 mm 1 mps 746 mmHg 59%
    08:00 +14°C° 0 mm 1 mps 746 mmHg 53%
    09:00 +16°C° 0 mm 1 mps 746 mmHg 46%
    10:00 +19°C° 0 mm 1 mps 746 mmHg 40%
    11:00 +21°C° 0 mm 1 mps 746 mmHg 38%
    12:00 +22°C° 0 mm 1 mps 745 mmHg 36%
    13:00 +23°C° 0 mm 1 mps 745 mmHg 34%
    14:00 +22°C° 0 mm 1 mps 745 mmHg 38%
    15:00 +20°C° 0 mm 2 mps 745 mmHg 42%
    16:00 +18°C° 0 mm 2 mps 744 mmHg 46%
    17:00 +17°C° 0 mm 2 mps 744 mmHg 50%
    18:00 +15°C° 0 mm 2 mps 744 mmHg 53%
    19:00 +14°C° 0 mm 1 mps 744 mmHg 57%
    20:00 +14°C° 0 mm 1 mps 744 mmHg 59%
    21:00 +13°C° 0 mm 1 mps 744 mmHg 60%
    22:00 +13°C° 0 mm 1 mps 744 mmHg 62%
    23:00 +12°C° 0 mm 1 mps 744 mmHg 64%

    18 October, Thursday

    Time Temperature Precipitation Wind Pressure Humidity
    00:00 +12°C° 0 mm 1 mps 744 mmHg 66%
    01:00 +12°C° 0 mm 1 mps 744 mmHg 67%
    02:00 +11°C° 0 mm 1 mps 744 mmHg 68%
    03:00 +11°C° 0 mm 1 mps 744 mmHg 69%
    04:00 +10°C° 0 mm 0 mps 744 mmHg 70%
    05:00 +10°C° 0 mm 0 mps 744 mmHg 70%
    06:00 +10°C° 0 mm 0 mps 744 mmHg 69%
    07:00 +11°C° 0 mm 0 mps 744 mmHg 69%
    08:00 +13°C° 0 mm 0 mps 744 mmHg 62%
    09:00 +15°C° 0 mm 0 mps 744 mmHg 55%
    10:00 +17°C° 0 mm 0 mps 744 mmHg 48%
    11:00 +18°C° 0 mm 0 mps 744 mmHg 46%
    12:00 +19°C° 0 mm 0 mps 744 mmHg 44%
    13:00 +21°C° 0 mm 0 mps 743 mmHg 41%
    14:00 +19°C° 0 mm 0 mps 743 mmHg 46%
    15:00 +20°C° 0 mm 1 mps 743 mmHg 50%
    16:00 +19°C° 0 mm 1 mps 743 mmHg 54%
    17:00 +18°C° 0 mm 1 mps 743 mmHg 58%
    18:00 +15°C° 0 mm 0 mps 743 mmHg 61%
    19:00 +14°C° 0 mm 0 mps 743 mmHg 65%
    20:00 +13°C° 0 mm 0 mps 743 mmHg 66%
    21:00 +13°C° 0 mm 0 mps 743 mmHg 68%
    22:00 +12°C° 0 mm 0 mps 744 mmHg 70%
    23:00 +13°C° 0 mm 1 mps 744 mmHg 70%

    19 October, Friday

    Time Temperature Precipitation Wind Pressure Humidity
    00:00 +13°C° 0 mm 1 mps 744 mmHg 71%
    01:00 +12°C° 0 mm 1 mps 744 mmHg 72%
    02:00 +12°C° 0 mm 1 mps 744 mmHg 73%
    03:00 +12°C° 0 mm 1 mps 744 mmHg 74%
    04:00 +11°C° 0 mm 1 mps 744 mmHg 75%
    05:00 +11°C° 0 mm 1 mps 744 mmHg 75%
    06:00 +11°C° 0 mm 1 mps 744 mmHg 75%
    07:00 +11°C° 0 mm 1 mps 744 mmHg 74%
    08:00 +13°C° 0 mm 1 mps 744 mmHg 68%
    09:00 +15°C° 0 mm 2 mps 744 mmHg 61%
    10:00 +17°C° 0 mm 2 mps 744 mmHg 55%
    11:00 +18°C° 0 mm 2 mps 744 mmHg 52%
    12:00 +19°C° 0 mm 2 mps 744 mmHg 50%
    13:00 +20°C° 0 mm 2 mps 744 mmHg 48%
    14:00 +19°C° 0 mm 2 mps 744 mmHg 52%
    15:00 +18°C° 0 mm 2 mps 744 mmHg 56%
    16:00 +18°C° 0 mm 1 mps 744 mmHg 60%
    17:00 +16°C° 0 mm 1 mps 744 mmHg 65%
    18:00 +15°C° 0 mm 1 mps 744 mmHg 69%
    19:00 +14°C° 0 mm 1 mps 744 mmHg 74%
    20:00 +13°C° 0 mm 1 mps 744 mmHg 77%
    21:00 +13°C° 0 mm 1 mps 745 mmHg 80%
    22:00 +12°C° 0 mm 1 mps 745 mmHg 82%
    23:00 +12°C° 0 mm 1 mps 745 mmHg 84%

    20 October, Saturday

    Time Temperature Precipitation Wind Pressure Humidity
    00:00 +12°C° 0 mm 1 mps 745 mmHg 86%
    01:00 +12°C° 0 mm 1 mps 745 mmHg 88%
    02:00 +11°C° 0 mm 1 mps 745 mmHg 89%
    03:00 +11°C° 0 mm 1 mps 745 mmHg 90%
    04:00 +10°C° 0 mm 2 mps 745 mmHg 90%
    05:00 +10°C° 0 mm 2 mps 745 mmHg 90%
    06:00 +12°C° 0 mm 2 mps 746 mmHg 90%
    07:00 +12°C° 0 mm 2 mps 746 mmHg 90%
    08:00 +13°C° 0 mm 2 mps 746 mmHg 87%
    09:00 +13°C° 0 mm 2 mps 746 mmHg 83%
    10:00 +13°C° 0 mm 3 mps 747 mmHg 80%
    11:00 +14°C° 0.1 mm 3 mps 746 mmHg 74%
    12:00 +14°C° 0.1 mm 3 mps 746 mmHg 69%
    13:00 +15°C° 0.1 mm 4 mps 746 mmHg 64%
    14:00 +14°C° 0 mm 3 mps 746 mmHg 63%
    15:00 +14°C° 0 mm 3 mps 746 mmHg 62%
    16:00 +13°C° 0 mm 3 mps 746 mmHg 60%
    17:00 +12°C° 0 mm 3 mps 747 mmHg 62%
    18:00 +10°C° 0 mm 3 mps 747 mmHg 64%
    19:00 +8°C° 0 mm 3 mps 747 mmHg 66%
    20:00 +8°C° 0 mm 3 mps 748 mmHg 70%
    21:00 +7°C° 0 mm 2 mps 748 mmHg 75%
    22:00 +6°C° 0 mm 2 mps 748 mmHg 79%
    23:00 +7°C° 0 mm 2 mps 748 mmHg 79%
    Show more